Regional Weather Roundup
Issued by NWS

Home | Current Version | Previous Version | Text Only | Print | Product List | Glossary On
Versions: 1 2 3 4 5 6 7 8 9 10 11 12 13 14 15 16 17 18 19 20 21 22 23 24 25 26 27 28 29 30 31 32 33 34 35 36 37 38 39 40 41 42 43 44 45 46 47
000
ASPQ40 PGUM 201112
RWRPQ
WEATHER ROUNDUP FOR THE MARIANAS AND MICRONESIA
NATIONAL WEATHER SERVICE TIYAN GU
900 PM CHST WED AUG 20 2014

GUZ001>004-201200-
MARIANA ISLANDS-

CITY           SKY/WX    TMP DP  RH WIND       PRES   REMARKS
GUAM AIRPORT   CLEAR     79  73  83 CALM      29.87R
ANDERSEN AFB   CLEAR     79  75  89 NW2       29.87R
ROTA AIRPORT   NOT AVBL
TINIAN AP      NOT AVBL
SAIPAN AP      CLEAR     82  75  78 N5        29.85S

$$

PMZ161-201200-
REPUBLIC OF PALAU-

CITY           SKY/WX    TMP DP  RH WIND       PRES   REMARKS
KOROR AP       MOCLDY    82  79  89 SW5       29.86  HX  93
KOROR WSO      MOCLDY    82  73  74 W5        29.86R

$$

PMZ171>174-201200-
FEDERATED STATES OF MICRONESIA-

CITY           SKY/WX    TMP DP  RH WIND       PRES   REMARKS
YAP AIRPORT    MOCLDY    81  77  89 VRB2      29.85R
CHUUK AP       MOCLDY    79  77  94 CALM      29.85R
POHNPEI AP     NOT AVBL
POHNPEI WSO    CLOUDY    79  75  89 W3        29.91R
KOSRAE AP      NOT AVBL

$$

PMZ181-201200-
REPUBLIC OF THE MARSHALL ISLANDS-

CITY           SKY/WX    TMP DP  RH WIND       PRES   REMARKS
KWAJALEIN AP   CLEAR     81  75  83 SE6       29.88S
MAJURO AP      NOT AVBL
MAJURO WSO     LGT RAIN  75  72  88 W5        29.89S

$$




USA.gov is the U.S. government's official web portal to all federal, state and local government web resources and services.